GW7149 Weather Reports


time (UTC)temp
C
wind
direction
speed
KPH
gust
KPH
rain 1hr
cm
rain 24hr
cm
rain mn
cm
humidity
%
barometer
mb
20260507000802 12 300 3.2 3.2 0.00 0.18 0.18 97 1007.3
20260507000259 12 275 1.6 3.2 0.00 0.18 0.18 97 1007.1
20260506235754 12 309 4.8 4.8 0.00 0.18 0.18 97 1007.3
20260506235250 12 244 3.2 6.4 0.00 0.18 0.18 97 1007.3
20260506234747 12 239 1.6 4.8 0.00 0.18 0.18 97 1007.2
20260506234244 12 329 1.6 3.2 0.00 0.18 0.18 97 1007.2
20260506233743 12 244 3.2 4.8 0.00 0.18 0.18 97 1007.3
20260506233239 12 298 3.2 6.4 0.00 0.18 0.18 97 1007.4
20260506232736 12 274 1.6 4.8 0.00 0.18 0.18 97 1007.1
20260506232236 12 293 3.2 6.4 0.00 0.18 0.18 97 1007.1
20260506231733 12 325 1.6 4.8 0.00 0.18 0.18 97 1007.1
20260506231231 12 305 1.6 4.8 0.18 0.18 0.18 97 1007.0
20260506230728 12 246 4.8 6.4 0.18 0.18 0.18 97 1006.9
20260506230225 12 277 4.8 9.7 0.00 0.15 0.15 97 1007.3
20260506225721 12 215 0.0 1.6 0.00 0.15 0.15 96 1007.1
20260506225219 12 335 0.0 3.2 0.00 0.15 0.15 96 1007.1
20260506224715 12 72 3.2 6.4 0.00 0.15 0.15 96 1007.1
20260506224212 12 345 0.0 4.8 0.00 0.15 0.15 96 1007.1
20260506223708 12 309 3.2 3.2 0.00 0.15 0.15 96 1007.0
20260506223204 12 282 3.2 3.2 0.00 0.15 0.15 96 1007.0
20260506222701 12 323 3.2 4.8 0.00 0.15 0.15 96 1007.0
20260506222156 12 269 1.6 6.4 0.00 0.15 0.15 96 1006.9
20260506221655 12 208 1.6 6.4 0.00 0.15 0.15 96 1006.7
20260506221153 12 292 3.2 4.8 0.00 0.15 0.15 96 1007.0
20260506220649 12 261 3.2 4.8 0.00 0.15 0.15 96 1006.9
20260506220144 12 306 4.8 4.8 0.13 0.15 0.15 96 1006.8
20260506215641 12 289 3.2 6.4 0.13 0.15 0.15 96 1006.8
20260506215136 12 310 6.4 6.4 0.00 0.13 0.13 96 1007.1
20260506214634 12 287 1.6 4.8 0.00 0.13 0.13 96 1007.3
20260506214131 12 294 1.6 4.8 0.00 0.13 0.13 96 1007.3
20260506213629 12 278 4.8 11.3 0.18 0.13 0.13 96 1007.5
20260506213126 12 305 3.2 6.4 0.18 0.13 0.13 96 1007.5
20260506212624 12 316 1.6 3.2 0.00 0.10 0.10 95 1007.3
20260506212118 12 304 3.2 6.4 0.00 0.10 0.10 95 1007.4
20260506211614 12 306 3.2 11.3 0.00 0.10 0.10 95 1007.4
20260506211111 13 36 3.2 9.7 0.18 0.10 0.10 95 1007.5
20260506210608 13 243 3.2 4.8 0.18 0.10 0.10 95 1007.5
20260506210104 13 284 0.0 3.2 0.00 0.08 0.08 95 1007.7
20260506205601 13 304 4.8 4.8 0.00 0.08 0.08 95 1007.8
20260506205056 13 322 3.2 12.9 0.00 0.08 0.08 95 1007.8
20260506204554 13 356 8.0 9.7 0.00 0.08 0.08 95 1007.8
20260506204051 13 312 3.2 11.3 0.00 0.08 0.08 95 1007.7
20260506203550 13 131 4.8 6.4 0.00 0.08 0.08 95 1007.6
20260506203046 13 304 3.2 4.8 0.00 0.08 0.08 95 1007.8
20260506202543 13 321 3.2 6.4 0.00 0.08 0.08 94 1008.0
20260506202039 13 299 4.8 6.4 0.00 0.08 0.08 94 1008.1
20260506201537 13 265 6.4 9.7 0.00 0.08 0.08 94 1008.0
20260506201033 13 289 4.8 6.4 0.00 0.08 0.08 94 1008.1
20260506200530 13 262 3.2 9.7 0.13 0.08 0.08 94 1008.0
20260506200027 13 265 3.2 6.4 0.13 0.08 0.08 94 1008.3
20260506195524 13 313 4.8 6.4 0.00 0.05 0.05 93 1008.4
20260506195020 13 285 3.2 11.3 0.00 0.05 0.05 93 1008.3
20260506194518 13 256 4.8 11.3 0.00 0.05 0.05 93 1008.1
20260506194014 13 299 6.4 6.4 0.00 0.05 0.05 93 1008.3
20260506193511 13 245 3.2 6.4 0.00 0.05 0.05 93 1008.5
20260506193008 13 283 1.6 4.8 0.18 0.05 0.05 93 1008.4
20260506192505 13 289 3.2 6.4 0.18 0.05 0.05 92 1008.5
20260506192001 13 319 4.8 6.4 0.13 0.03 0.03 91 1008.5
20260506191458 13 240 4.8 6.4 0.13 0.03 0.03 90 1008.6
20260506190954 13 143 3.2 4.8 0.00 0.00 0.00 90 1008.5
20260506190451 14 275 3.2 6.4 0.00 0.00 0.00 88 1008.4
20260506185948 14 237 1.6 6.4 0.00 0.00 0.00 88 1008.5
20260506185445 14 245 3.2 6.4 0.00 0.00 0.00 86 1008.6
20260506184942 15 345 6.4 9.7 0.00 0.00 0.00 85 1008.8
20260506184439 15 281 3.2 3.2 0.00 0.00 0.00 83 1008.7
20260506183936 15 278 4.8 9.7 0.00 0.00 0.00 81 1008.9
20260506183431 16 322 1.6 4.8 0.00 0.00 0.00 79 1009.0
20260506182929 16 266 4.8 11.3 0.00 0.00 0.00 78 1009.0
20260506182426 16 278 6.4 9.7 0.00 0.00 0.00 77 1009.1
20260506181923 16 267 6.4 11.3 0.00 0.00 0.00 76 1009.0
20260506181421 16 266 4.8 9.7 0.00 0.00 0.00 76 1009.1
20260506180918 16 290 3.2 9.7 0.00 0.00 0.00 76 1009.2
20260506180414 16 292 4.8 6.4 0.00 0.00 0.00 75 1009.4
20260506175911 16 294 4.8 11.3 0.00 0.00 0.00 75 1009.1
20260506175408 16 290 4.8 12.9 0.00 0.00 0.00 75 1009.3
20260506174905 17 300 4.8 6.4 0.00 0.00 0.00 74 1009.4
20260506174402 17 306 4.8 9.7 0.00 0.00 0.00 74 1009.5
20260506173859 17 235 3.2 11.3 0.00 0.00 0.00 73 1009.3
20260506173356 17 277 3.2 14.5 0.00 0.00 0.00 73 1009.7
20260506172853 17 99 6.4 9.7 0.00 0.00 0.00 72 1009.7
20260506172350 18 270 4.8 6.4 0.00 0.00 0.00 70 1009.7
20260506171847 18 253 3.2 9.7 0.00 0.00 0.00 72 1009.5
20260506171344 18 225 4.8 11.3 0.00 0.00 0.00 70 1009.8
20260506170842 18 293 3.2 6.4 0.00 0.00 0.00 70 1009.7
20260506170338 18 278 3.2 6.4 0.00 0.00 0.00 69 1009.7
20260506165837 19 96 6.4 11.3 0.00 0.00 0.00 68 1009.6
20260506165335 18 141 1.6 4.8 0.00 0.00 0.00 68 1009.7
20260506164831 18 258 8.0 12.9 0.00 0.00 0.00 68 1009.7
20260506164327 19 246 3.2 9.7 0.00 0.00 0.00 68 1009.9
20260506163825 19 157 4.8 12.9 0.00 0.00 0.00 67 1009.9
20260506163319 18 301 1.6 9.7 0.00 0.00 0.00 70 1009.9
20260506162815 18 279 6.4 11.3 0.00 0.00 0.00 68 1010.0
20260506162313 18 325 6.4 6.4 0.00 0.00 0.00 68 1010.1
20260506161810 18 315 4.8 12.9 0.00 0.00 0.00 69 1010.4
20260506161308 18 309 3.2 6.4 0.00 0.00 0.00 69 1010.4
20260506160806 18 240 6.4 9.7 0.00 0.00 0.00 68 1010.3
20260506160302 18 75 3.2 6.4 0.00 0.00 0.00 69 1010.4
20260506155801 18 242 3.2 11.3 0.00 0.00 0.00 67 1010.3
20260506155257 18 293 1.6 4.8 0.00 0.00 0.00 67 1010.5
20260506153410 20 325 4.8 9.7 0.00 0.00 0.00 64 1010.5
20260506152907 20 231 6.4 6.4 0.00 0.00 0.00 63 1010.4
20260506152404 20 262 3.2 9.7 0.00 0.00 0.00 66 1010.5
20260506151902 20 269 6.4 17.7 0.00 0.00 0.00 63 1010.4
20260506151359 20 157 6.4 11.3 0.00 0.00 0.00 64 1010.7
20260506150856 20 259 9.7 16.1 0.00 0.00 0.00 64 1010.6
20260506150352 19 279 3.2 12.9 0.00 0.00 0.00 66 1010.4
20260506145849 19 317 1.6 4.8 0.00 0.00 0.00 66 1010.6
20260506145345 20 148 6.4 12.9 0.00 0.00 0.00 64 1010.7
20260506144843 20 249 4.8 9.7 0.00 0.00 0.00 64 1010.7
20260506144339 19 304 6.4 9.7 0.00 0.00 0.00 66 1010.7
20260506143838 19 11 9.7 12.9 0.00 0.00 0.00 66 1010.6
20260506143335 19 257 4.8 11.3 0.00 0.00 0.00 68 1010.6
20260506142833 20 283 4.8 6.4 0.00 0.00 0.00 65 1010.5
20260506142331 20 299 4.8 4.8 0.00 0.00 0.00 66 1010.6
20260506141829 20 11 4.8 9.7 0.00 0.00 0.00 66 1010.5
20260506141327 18 276 3.2 4.8 0.00 0.00 0.00 70 1010.7
20260506140824 18 279 3.2 9.7 0.00 0.00 0.00 71 1010.4
20260506140321 18 292 4.8 9.7 0.00 0.00 0.00 70 1010.8
20260506135818 18 229 3.2 6.4 0.00 0.00 0.00 70 1010.6
20260506135314 18 300 4.8 9.7 0.00 0.00 0.00 70 1010.5
20260506134811 18 234 3.2 4.8 0.00 0.00 0.00 70 1010.7
20260506134308 18 277 6.4 9.7 0.00 0.00 0.00 71 1010.7
20260506133804 17 211 3.2 9.7 0.00 0.00 0.00 71 1010.8
20260506133301 18 125 1.6 4.8 0.00 0.00 0.00 71 1010.7
20260506132758 18 317 3.2 11.3 0.00 0.00 0.00 70 1010.9
20260506132255 17 249 6.4 9.7 0.00 0.00 0.00 71 1011.0
20260506131753 17 222 3.2 9.7 0.00 0.00 0.00 71 1011.1
20260506131249 18 291 6.4 11.3 0.00 0.00 0.00 70 1011.1
20260506130746 18 311 4.8 6.4 0.00 0.00 0.00 71 1011.1
20260506130243 17 280 1.6 4.8 0.00 0.00 0.00 73 1011.1
20260506125741 17 308 6.4 12.9 0.00 0.00 0.00 74 1011.2
20260506125238 17 227 9.7 11.3 0.00 0.00 0.00 74 1011.2
20260506124737 16 268 3.2 9.7 0.00 0.00 0.00 76 1011.0
20260506124234 16 161 4.8 6.4 0.00 0.00 0.00 76 1011.0
20260506123731 16 300 4.8 9.7 0.00 0.00 0.00 76 1010.8
20260506123230 16 285 3.2 9.7 0.00 0.00 0.00 77 1011.1
20260506122726 16 307 1.6 11.3 0.00 0.00 0.00 79 1011.0
20260506122223 15 289 4.8 11.3 0.00 0.00 0.00 79 1010.8
20260506121722 15 293 3.2 4.8 0.00 0.00 0.00 81 1010.9
20260506121218 15 240 3.2 9.7 0.00 0.00 0.00 82 1011.0
20260506120716 15 234 6.4 6.4 0.00 0.00 0.00 83 1011.2
20260506120213 15 293 6.4 9.7 0.00 0.00 0.00 84 1011.0
20260506115711 14 273 3.2 9.7 0.00 0.00 0.00 85 1011.1
20260506115209 14 295 3.2 4.8 0.00 0.00 0.00 86 1011.2
20260506114706 14 275 4.8 6.4 0.00 0.00 0.00 86 1011.4
20260506114204 14 279 3.2 11.3 0.00 0.00 0.00 86 1011.5
20260506113703 14 273 3.2 11.3 0.00 0.00 0.00 86 1011.4
20260506113159 13 314 4.8 6.4 0.00 0.00 0.00 87 1011.5
20260506112655 13 320 4.8 6.4 0.00 0.00 0.00 88 1011.4
20260506112153 13 310 1.6 4.8 0.00 0.00 0.00 89 1011.4
20260506111650 13 328 3.2 4.8 0.00 0.00 0.00 88 1011.3
20260506111148 13 260 3.2 4.8 0.00 0.00 0.00 88 1011.3
20260506110646 13 254 1.6 4.8 0.00 0.00 0.00 89 1011.6
20260506110143 13 247 4.8 6.4 0.00 0.00 0.00 90 1011.4
20260506105639 13 267 1.6 3.2 0.00 0.00 0.00 90 1011.0
20260506105136 13 202 8.0 12.9 0.00 0.00 0.00 89 1011.3
20260506104634 13 302 3.2 4.8 0.00 0.00 0.00 90 1011.5
20260506104131 13 277 1.6 6.4 0.00 0.00 0.00 90 1011.4
20260506103629 13 215 1.6 4.8 0.00 0.00 0.00 90 1011.2
20260506103125 13 283 3.2 4.8 0.00 0.00 0.00 90 1011.2
20260506102624 13 252 3.2 4.8 0.00 0.00 0.00 90 1011.0
20260506102121 13 274 1.6 4.8 0.00 0.00 0.00 90 1011.2
20260506101617 13 270 3.2 4.8 0.00 0.00 0.00 90 1011.1
20260506101114 13 291 4.8 9.7 0.00 0.00 0.00 90 1010.9
20260506100613 13 273 1.6 4.8 0.00 0.00 0.00 90 1011.1
20260506100110 13 267 3.2 6.4 0.00 0.00 0.00 90 1011.1
20260506095609 13 255 3.2 12.9 0.00 0.00 0.00 90 1010.9
20260506095105 13 250 3.2 3.2 0.00 0.00 0.00 90 1011.0
20260506094603 13 266 3.2 4.8 0.00 0.00 0.00 90 1011.1
20260506094100 13 271 3.2 11.3 0.00 0.00 0.00 90 1011.1
20260506093558 13 258 4.8 9.7 0.00 0.00 0.00 90 1011.0
20260506093055 13 292 4.8 9.7 0.00 0.00 0.00 90 1011.1
20260506092553 13 283 3.2 4.8 0.00 0.00 0.00 90 1011.0
20260506092050 13 287 1.6 4.8 0.00 0.00 0.00 90 1011.1
20260506091548 13 300 3.2 4.8 0.00 0.00 0.00 89 1011.2
20260506091045 13 258 4.8 4.8 0.00 0.00 0.00 89 1011.3
20260506090543 13 284 6.4 9.7 0.00 0.00 0.00 89 1011.2
20260506090039 13 269 3.2 11.3 0.00 0.00 0.00 88 1011.3
20260506085536 13 271 4.8 6.4 0.00 0.00 0.00 88 1011.1
20260506085032 13 323 1.6 6.4 0.00 0.00 0.00 88 1011.4
20260506084530 13 230 6.4 12.9 0.00 0.00 0.00 88 1011.3
20260506084025 13 249 3.2 6.4 0.00 0.00 0.00 88 1011.5
20260506083523 13 276 3.2 9.7 0.00 0.00 0.00 88 1011.5
20260506083020 13 311 3.2 9.7 0.00 0.00 0.00 87 1011.7
20260506082517 13 298 3.2 9.7 0.00 0.00 0.00 87 1011.5
20260506082012 13 334 6.4 9.7 0.00 0.00 0.00 87 1011.3
20260506081511 13 292 4.8 6.4 0.00 0.00 0.00 87 1011.4
20260506081008 13 265 4.8 9.7 0.00 0.00 0.00 87 1011.6
20260506080505 13 284 4.8 6.4 0.00 0.00 0.00 86 1011.6
20260506073449 13 258 6.4 9.7 0.00 0.00 0.00 86 1011.5
20260506072946 13 260 6.4 11.3 0.00 0.00 0.00 86 1011.7
20260506072443 13 274 4.8 4.8 0.00 0.00 0.00 85 1011.3
20260506071941 13 296 4.8 16.1 0.00 0.00 0.00 85 1011.6
20260506071439 13 285 4.8 9.7 0.00 0.00 0.00 85 1011.4
20260506070935 13 298 9.7 12.9 0.00 0.00 0.00 85 1011.3
20260506070432 13 291 4.8 6.4 0.00 0.00 0.00 85 1011.3
20260506062410 13 251 6.4 11.3 0.00 0.00 0.00 85 1011.6
20260506061906 13 319 4.8 6.4 0.00 0.00 0.00 84 1011.4
20260506061402 13 246 6.4 9.7 0.00 0.00 0.00 84 1011.2
20260506060900 13 279 4.8 9.7 0.00 0.00 0.00 84 1011.5
20260506060358 13 278 8.0 9.7 0.00 0.00 0.00 84 1011.5
20260506051330 13 232 4.8 11.3 0.00 0.00 0.00 82 1011.8
20260506050828 13 230 6.4 9.7 0.00 0.00 0.00 82 1011.9
20260506050325 13 262 3.2 4.8 0.00 0.00 0.00 81 1011.7
20260506044815 13 300 8.0 9.7 0.00 0.00 0.00 80 1012.1
20260506044313 13 259 4.8 4.8 0.00 0.00 0.00 79 1012.2
20260506043810 13 295 4.8 4.8 0.00 0.00 0.00 79 1011.9
20260506043307 14 229 4.8 9.7 0.00 0.00 0.00 79 1011.9
20260506042806 14 3 3.2 11.3 0.00 0.00 0.00 79 1012.0
20260506042305 14 243 4.8 9.7 0.00 0.00 0.00 78 1011.9
20260506041803 14 279 1.6 6.4 0.00 0.00 0.00 78 1011.9
20260506041259 14 293 3.2 11.3 0.00 0.00 0.00 78 1012.0
20260506040756 14 262 4.8 6.4 0.00 0.00 0.00 77 1011.9
20260506040254 14 313 6.4 11.3 0.00 0.00 0.00 77 1012.0
20260506035750 14 240 4.8 9.7 0.00 0.00 0.00 77 1012.0
20260506035247 14 296 3.2 6.4 0.00 0.00 0.00 77 1011.9
20260506034744 14 296 4.8 6.4 0.00 0.00 0.00 77 1012.0
20260506034241 14 294 4.8 6.4 0.00 0.00 0.00 77 1011.7
20260506033738 14 265 3.2 6.4 0.00 0.00 0.00 77 1012.0
20260506033235 14 258 3.2 6.4 0.00 0.00 0.00 76 1011.9
20260506032732 14 324 8.0 11.3 0.00 0.00 0.00 76 1011.9
20260506032229 14 10 3.2 11.3 0.00 0.00 0.00 76 1011.8
20260506031726 14 297 4.8 6.4 0.00 0.00 0.00 75 1011.9
20260506031223 14 271 3.2 9.7 0.00 0.00 0.00 75 1011.9
20260506030721 14 281 4.8 4.8 0.00 0.00 0.00 74 1011.9
20260506030219 14 315 4.8 6.4 0.00 0.00 0.00 74 1011.8
20260506025715 14 245 4.8 11.3 0.00 0.00 0.00 75 1011.8
20260506025212 14 127 3.2 4.8 0.00 0.00 0.00 74 1011.8
20260506024709 14 261 3.2 4.8 0.00 0.00 0.00 74 1011.8
20260506024205 14 238 4.8 6.4 0.00 0.00 0.00 74 1011.8
20260506023701 14 302 3.2 4.8 0.00 0.00 0.00 74 1011.8
20260506023159 14 315 6.4 6.4 0.00 0.00 0.00 73 1011.6
20260506022656 14 314 3.2 6.4 0.00 0.00 0.00 74 1011.8
20260506022153 14 283 3.2 6.4 0.00 0.00 0.00 73 1011.7
20260506021651 14 306 3.2 6.4 0.00 0.00 0.00 73 1011.7
20260506021148 14 261 4.8 9.7 0.00 0.00 0.00 73 1011.7
20260506020645 14 321 3.2 11.3 0.00 0.00 0.00 73 1011.6
20260506020143 14 265 3.2 4.8 0.00 0.00 0.00 73 1011.9
20260506015640 14 248 3.2 9.7 0.00 0.00 0.00 73 1011.7
20260506015137 14 263 4.8 9.7 0.00 0.00 0.00 73 1011.6
20260506014635 14 305 6.4 6.4 0.00 0.00 0.00 72 1011.7
20260506014130 15 263 6.4 9.7 0.00 0.00 0.00 72 1011.7
20260506013629 15 235 3.2 9.7 0.00 0.00 0.00 72 1011.7
20260506013125 15 297 9.7 11.3 0.00 0.00 0.00 72 1011.4
20260506012621 15 258 4.8 6.4 0.00 0.00 0.00 71 1011.6
20260506012118 14 273 8.0 12.9 0.00 0.00 0.00 72 1011.4
20260506011616 14 212 4.8 6.4 0.00 0.00 0.00 73 1011.5
20260506011112 14 288 3.2 6.4 0.00 0.00 0.00 73 1011.5
20260506010611 14 290 4.8 6.4 0.00 0.00 0.00 74 1011.3
20260506010108 14 280 4.8 6.4 0.00 0.00 0.00 74 1011.2
20260506005605 13 306 4.8 11.3 0.00 0.00 0.00 75 1011.3
20260506005101 13 278 3.2 4.8 0.00 0.00 0.00 75 1011.4
20260506004558 13 293 6.4 9.7 0.00 0.00 0.00 76 1011.3
20260506004054 13 298 4.8 9.7 0.00 0.00 0.00 77 1011.2
20260506003551 13 305 3.2 9.7 0.00 0.00 0.00 77 1010.9
20260506003047 13 296 3.2 9.7 0.00 0.00 0.00 76 1010.9
20260506002543 13 292 3.2 4.8 0.00 0.00 0.00 76 1010.8
20260506002039 13 302 4.8 6.4 0.00 0.00 0.00 76 1010.7
20260506001536 13 322 4.8 6.4 0.00 0.00 0.00 76 1010.8
20260506001033 13 264 1.6 4.8 0.00 0.00 0.00 76 1010.5